< Cyclone 198605 1986 Season Cyclone 198607 >
Cyclone 198606 (WINIFRED)
General InformationTrack Information on Google MapsDetailed Wind InformationList of All Images || ResourceGoogle EarthGE AnimationAtom FeedGeoJSON
Detalied Best Track (Time Zone = UTC)
Year Month Day Hour Lat. Long. Pressure (hPa) Wind (kt) Class Image Chart
1986 1 27 06 -12.8 144.8 1003 19 2 Image --
1986 1 27 12 -12.6 144.8 1004 16 2 Image --
1986 1 27 18 -12.6 145.1 1003 16 2 Image --
1986 1 28 00 -12.5 145.4 1004 16 2 Image --
1986 1 28 06 -12.5 145.7 1003 16 2 Image --
1986 1 28 12 -12.5 146.1 1003 16 2 Image --
1986 1 28 18 -12.7 146.6 1002 19 2 Image --
1986 1 29 00 -12.9 146.7 1000 25 2 Image --
1986 1 29 06 -13.3 146.6 998 31 2 Image --
1986 1 29 12 -13.7 146.6 998 33 2 Image --
1986 1 29 18 -14.0 146.5 995 41 3 Image --
1986 1 30 00 -14.3 146.5 994 45 3 Image --
1986 1 30 06 -14.6 146.5 991 49 4 Image --
1986 1 30 12 -14.8 146.7 987 51 4 Image --
1986 1 30 18 -15.0 147.0 983 53 4 Image --
1986 1 31 00 -15.2 147.3 978 54 4 Image --
1986 1 31 06 -15.6 147.7 975 56 4 Image --
1986 1 31 12 -16.0 147.9 973 58 4 Image --
1986 1 31 18 -16.3 147.7 972 60 4 Image --
1986 2 1 00 -16.8 147.1 968 64 5 Image --
1986 2 1 06 -17.4 146.5 961 64 5 Image --
1986 2 1 09 -17.5 146.1 957 68 5 Image --
1986 2 1 12 -17.7 145.7 982 51 4 Image --
1986 2 1 18 -18.4 145.0 991 47 3 Image --
1986 2 2 00 -19.2 144.3 995 31 2 Image --
1986 2 2 06 -20.1 143.5 996 27 2 Image --
1986 2 2 12 -20.4 142.8 997 16 2 Image --
1986 2 2 18 -20.5 142.3 998 16 2 Image --
1986 2 3 00 -20.5 141.8 999 16 2 Image --
1986 2 3 06 -20.7 141.4 999 21 2 Image --
1986 2 3 12 -21.1 141.8 1000 14 2 Image --
1986 2 3 18 -21.3 142.2 1002 12 2 Image --
1986 2 4 00 -21.5 142.5 1004 10 2 Image --
1986 2 4 06 -21.8 142.8 1003 8 2 Image --
1986 2 4 12 -22.1 142.9 1004 6 2 Image --
1986 2 4 18 -22.2 143.1 1003 6 2 Image --
1986 2 5 00 -22.2 143.3 1006 6 2 Image --
1986 2 5 06 -21.9 143.6 1003 6 2 Image --
1986 2 5 12 -21.4 143.9 1003 6 2 Image --
1986 2 5 18 -20.8 144.2 1003 6 2 Image --
< Cyclone 198605 1986 Season Cyclone 198607 >

Help